User: anonymous   Login
Location: Dodge City Community College Clyde Tombaugh Astronomy Center
(37.7756°N, 100.0412°W)
Time: 21:13:09
(UTC+00:00)
Language:

Cosmos 923 Rocket - Orbit

View from above orbital plane
View from above orbital plane
View from above satellite
View from above satellite

Ground track
Ground track

The orbit data is extracted from the following two-line orbital elements,

1 10121U 77059B   22147.92249423  .00000170  00000-0  67247-4 0  9992
2 10121  74.0491  59.3735 0019399 322.7732  37.2075 14.36083508348761
Epoch (UTC): 27 May 2022 22:08:23
Eccentricity: 0.0019399
inclination: 74.0491°
perigee height: 757 km
apogee height: 785 km
right ascension of ascending node: 59.3735°
argument of perigee: 322.7732°
revolutions per day: 14.36083508
mean anomaly at epoch: 37.2075°
orbit number at epoch: 34876

The dashed part of the orbit path shows where the satellite is in the earth's shadow,  

DLR